TimeMST,TemperatureF,Dew PointF,Humidity,Sea Level PressureIn,VisibilityMPH,Wind Direction,Wind SpeedMPH,Gust SpeedMPH,PrecipitationIn,Events,Conditions,WindDirDegrees,DateUTC
12:53 AM,3.9,-0.0,84,30.19,10.0,WSW,6.9,-,N/A,,Clear,250,2013-01-04 07:53:00
1:53 AM,1.0,-2.0,87,30.19,10.0,WSW,4.6,-,N/A,,Clear,250,2013-01-04 08:53:00
2:53 AM,1.9,-2.0,83,30.20,10.0,West,5.8,-,N/A,,Clear,280,2013-01-04 09:53:00
3:53 AM,1.9,-0.9,88,30.21,10.0,WSW,6.9,-,N/A,,Clear,240,2013-01-04 10:53:00
4:53 AM,1.4,-2.2,85,30.06,10.0,WSW,6.9,-,N/A,,Clear,250,2013-01-04 11:53:00
5:53 AM,-0.4,-2.2,92,30.05,10.0,WSW,3.5,-,N/A,,Clear,240,2013-01-04 12:53:00
6:53 AM,1.9,-2.0,83,30.19,10.0,Calm,Calm,-,N/A,,Clear,0,2013-01-04 13:53:00
7:53 AM,1.0,-2.0,87,30.18,9.0,Calm,Calm,-,N/A,,Clear,0,2013-01-04 14:53:00
8:53 AM,-0.0,-4.0,83,30.18,8.0,SW,3.5,-,N/A,,Clear,230,2013-01-04 15:53:00
9:53 AM,3.0,1.0,91,30.20,9.0,Variable,3.5,-,N/A,,Clear,0,2013-01-04 16:53:00
10:53 AM,7.0,3.0,84,30.18,10.0,Calm,Calm,-,N/A,,Clear,0,2013-01-04 17:53:00
11:53 AM,10.9,5.0,77,30.15,10.0,WSW,6.9,-,N/A,,Clear,240,2013-01-04 18:53:00
12:53 PM,15.1,9.0,77,30.12,10.0,WSW,8.1,-,N/A,,Clear,240,2013-01-04 19:53:00
1:53 PM,18.0,10.0,71,30.11,10.0,West,5.8,-,N/A,,Clear,270,2013-01-04 20:53:00
2:53 PM,18.0,10.9,74,30.11,10.0,WSW,8.1,-,N/A,,Clear,250,2013-01-04 21:53:00
3:53 PM,16.0,10.0,77,30.10,10.0,WSW,5.8,-,N/A,,Clear,250,2013-01-04 22:53:00
4:53 PM,14.0,9.0,80,30.10,10.0,WSW,5.8,-,N/A,,Clear,250,2013-01-04 23:53:00
5:53 PM,10.9,8.1,88,30.10,10.0,SW,5.8,-,N/A,,Clear,220,2013-01-05 00:53:00
6:53 PM,10.4,6.8,85,29.95,10.0,Calm,Calm,-,N/A,,Clear,0,2013-01-05 01:53:00
7:53 PM,10.9,8.1,88,30.08,10.0,WSW,8.1,-,N/A,,Clear,240,2013-01-05 02:53:00
8:53 PM,19.0,14.0,81,30.06,10.0,WSW,10.4,-,N/A,,Clear,250,2013-01-05 03:53:00
9:53 PM,18.0,14.0,84,30.07,10.0,WSW,5.8,-,N/A,,Clear,240,2013-01-05 04:53:00
10:53 PM,21.9,14.0,72,30.11,10.0,WNW,19.6,-,N/A,,Clear,300,2013-01-05 05:53:00
11:53 PM,19.0,10.9,71,30.14,10.0,West,15.0,-,N/A,,Clear,270,2013-01-05 06:53:00